ASA123 KSAN-KFAT

Flight info

Callsign ASA123
Flight time 0h 54m
Altitude 28000
Route PADRZ2 EHF TTE
Aircraft B738/M-SDE2E3FGHIRWXY/LB1

Departure

Time 2026-04-25 17:04
Airport San Diego International Airport (KSAN)

Arrival

Time 2026-04-25 17:58
Airport Fresno Yosemite International Airport (KFAT)
Time Latitude Longitude Altitude Speed Heading
2026-04-25 17:01 32.73175 -117.18632 21 ft 21 kts 106°
2026-04-25 17:01 32.73132 -117.18471 20 ft 20 kts 108°
2026-04-25 17:01 32.73109 -117.18376 22 ft 6 kts 105°
2026-04-25 17:01 32.73097 -117.18324 22 ft 11 kts 105°
2026-04-25 17:02 32.73070 -117.18211 21 ft 17 kts 106°
2026-04-25 17:02 32.73029 -117.18042 20 ft 23 kts 106°
2026-04-25 17:02 32.72985 -117.17854 23 ft 23 kts 106°
2026-04-25 17:02 32.72952 -117.17735 21 ft 23 kts 99°
2026-04-25 17:03 32.73037 -117.17653 20 ft 9 kts 287°
2026-04-25 17:03 32.73050 -117.17705 20 ft 31 kts 287°
2026-04-25 17:03 32.73201 -117.18332 21 ft 124 kts 286°
2026-04-25 17:03 32.73503 -117.19588 226 ft 184 kts 285°
2026-04-25 17:04 32.73904 -117.21182 857 ft 213 kts 287°
2026-04-25 17:04 32.74609 -117.22827 1358 ft 230 kts 303°
2026-04-25 17:04 32.75558 -117.24387 1850 ft 235 kts 303°
2026-04-25 17:04 32.76504 -117.25973 2330 ft 237 kts 303°
2026-04-25 17:05 32.77456 -117.27588 2835 ft 240 kts 303°
2026-04-25 17:05 32.79374 -117.30865 3863 ft 248 kts 303°
2026-04-25 17:05 32.80385 -117.32554 4382 ft 251 kts 305°
2026-04-25 17:06 32.81445 -117.34199 4886 ft 251 kts 306°
2026-04-25 17:06 32.82514 -117.35838 5385 ft 251 kts 306°
2026-04-25 17:06 32.83584 -117.37480 5912 ft 251 kts 306°
2026-04-25 17:06 32.84674 -117.39161 6432 ft 261 kts 306°
2026-04-25 17:07 32.85784 -117.40876 6912 ft 261 kts 306°
2026-04-25 17:07 32.86892 -117.42590 7393 ft 262 kts 305°
2026-04-25 17:07 32.88003 -117.44312 7884 ft 263 kts 304°
2026-04-25 17:07 32.89119 -117.46045 8393 ft 263 kts 304°
2026-04-25 17:08 32.90233 -117.47775 8886 ft 264 kts 303°
2026-04-25 17:08 32.91353 -117.49517 9412 ft 265 kts 303°
2026-04-25 17:08 32.92479 -117.51268 9930 ft 267 kts 302°
2026-04-25 17:08 32.93636 -117.53076 10228 ft 288 kts 302°
2026-04-25 17:09 32.94879 -117.55026 10447 ft 315 kts 302°
2026-04-25 17:09 32.96255 -117.57180 10813 ft 335 kts 303°
2026-04-25 17:09 32.97687 -117.59409 11544 ft 341 kts 303°
2026-04-25 17:09 32.99140 -117.61666 12402 ft 344 kts 302°
2026-04-25 17:10 33.00598 -117.63937 13282 ft 347 kts 302°
2026-04-25 17:10 33.02075 -117.66241 14061 ft 351 kts 302°
2026-04-25 17:10 33.03564 -117.68569 14789 ft 355 kts 302°
2026-04-25 17:10 33.05068 -117.70922 15532 ft 359 kts 302°
2026-04-25 17:11 33.06620 -117.73271 16284 ft 365 kts 307°
2026-04-25 17:11 33.08511 -117.75354 16993 ft 374 kts 314°
2026-04-25 17:11 33.10535 -117.77329 17691 ft 378 kts 315°
2026-04-25 17:11 33.12585 -117.79325 18361 ft 382 kts 314°
2026-04-25 17:12 33.14638 -117.81363 18968 ft 385 kts 314°
2026-04-25 17:12 33.16691 -117.83438 19596 ft 388 kts 313°
2026-04-25 17:12 33.18752 -117.85538 20234 ft 390 kts 312°
2026-04-25 17:12 33.20831 -117.87637 20836 ft 395 kts 313°
2026-04-25 17:13 33.22972 -117.89738 21390 ft 399 kts 313°
2026-04-25 17:13 33.24397 -117.91123 21763 ft 401 kts 313°
2026-04-25 17:13 33.27310 -117.93946 22528 ft 405 kts 313°
2026-04-25 17:13 33.29507 -117.96079 23086 ft 408 kts 313°
2026-04-25 17:14 33.31722 -117.98236 23619 ft 411 kts 313°
2026-04-25 17:14 33.33915 -118.00377 24055 ft 414 kts 313°
2026-04-25 17:14 33.36152 -118.02564 24503 ft 417 kts 313°
2026-04-25 17:14 33.38408 -118.04772 24967 ft 419 kts 313°
2026-04-25 17:15 33.40670 -118.06991 25316 ft 425 kts 314°
2026-04-25 17:15 33.42974 -118.09251 25701 ft 428 kts 314°
2026-04-25 17:15 33.45288 -118.11520 26170 ft 430 kts 314°
2026-04-25 17:15 33.47609 -118.13798 26636 ft 431 kts 314°
2026-04-25 17:16 33.49923 -118.16069 27185 ft 429 kts 313°
2026-04-25 17:16 33.52225 -118.18330 27811 ft 426 kts 313°
2026-04-25 17:16 33.54525 -118.20594 27984 ft 429 kts 313°
2026-04-25 17:16 33.56822 -118.22853 27989 ft 427 kts 314°
2026-04-25 17:17 33.59338 -118.24818 28008 ft 439 kts 327°
2026-04-25 17:17 33.62136 -118.26347 28015 ft 445 kts 330°
2026-04-25 17:17 33.67808 -118.29278 28009 ft 448 kts 329°
2026-04-25 17:18 33.70650 -118.30803 27998 ft 448 kts 329°
2026-04-25 17:18 33.73486 -118.32361 28000 ft 447 kts 328°
2026-04-25 17:18 33.79155 -118.35429 28004 ft 447 kts 330°
2026-04-25 17:19 33.84887 -118.38272 28001 ft 445 kts 330°
2026-04-25 17:19 33.87756 -118.39694 28000 ft 444 kts 330°
2026-04-25 17:19 33.90607 -118.41122 27997 ft 443 kts 330°
2026-04-25 17:20 33.93445 -118.42554 27998 ft 442 kts 330°
2026-04-25 17:20 33.96277 -118.43988 28004 ft 442 kts 330°
2026-04-25 17:20 34.02090 -118.46498 27986 ft 453 kts 344°
2026-04-25 17:21 34.05226 -118.47031 27992 ft 456 kts 347°
2026-04-25 17:21 34.08382 -118.47457 27993 ft 457 kts 348°
2026-04-25 17:21 34.11553 -118.47861 27995 ft 458 kts 348°
2026-04-25 17:21 34.14721 -118.48278 27983 ft 459 kts 347°
2026-04-25 17:22 34.17895 -118.48720 27980 ft 459 kts 347°
2026-04-25 17:22 34.19997 -118.49025 27986 ft 459 kts 347°
2026-04-25 17:22 34.24190 -118.49656 27986 ft 459 kts 347°
2026-04-25 17:22 34.27364 -118.50143 27991 ft 458 kts 347°
2026-04-25 17:23 34.33691 -118.51122 28018 ft 459 kts 347°
2026-04-25 17:23 34.36869 -118.51614 27987 ft 459 kts 347°
2026-04-25 17:23 34.40032 -118.52104 27991 ft 458 kts 347°
2026-04-25 17:24 34.46340 -118.53080 27953 ft 456 kts 347°
2026-04-25 17:24 34.49487 -118.53567 27939 ft 455 kts 347°
2026-04-25 17:24 34.52586 -118.54047 27938 ft 454 kts 347°
2026-04-25 17:25 34.55716 -118.54532 27930 ft 454 kts 347°
2026-04-25 17:25 34.58850 -118.55019 27941 ft 453 kts 347°
2026-04-25 17:25 34.61979 -118.55505 27934 ft 454 kts 347°
2026-04-25 17:25 34.65112 -118.55993 27948 ft 453 kts 347°
2026-04-25 17:26 34.68250 -118.56481 27943 ft 453 kts 347°
2026-04-25 17:26 34.71383 -118.56969 27932 ft 453 kts 347°
2026-04-25 17:26 34.74505 -118.57456 27932 ft 453 kts 347°
2026-04-25 17:26 34.77631 -118.57943 27929 ft 453 kts 347°
2026-04-25 17:27 34.80759 -118.58431 27928 ft 453 kts 347°
2026-04-25 17:27 34.83887 -118.58920 27919 ft 453 kts 347°
2026-04-25 17:27 34.87016 -118.59409 27934 ft 454 kts 347°
2026-04-25 17:27 34.88072 -118.59574 27935 ft 454 kts 347°
2026-04-25 17:28 34.93287 -118.60390 27944 ft 454 kts 347°
2026-04-25 17:28 34.96414 -118.60880 27948 ft 454 kts 347°
2026-04-25 17:28 34.99536 -118.61439 27948 ft 450 kts 341°
2026-04-25 17:28 35.02390 -118.62815 27963 ft 435 kts 323°
2026-04-25 17:29 35.04791 -118.64991 27976 ft 428 kts 314°
2026-04-25 17:29 35.07072 -118.67335 27978 ft 429 kts 313°
2026-04-25 17:29 35.09314 -118.69660 27804 ft 417 kts 313°
2026-04-25 17:29 35.11488 -118.71911 27301 ft 412 kts 313°
2026-04-25 17:30 35.13664 -118.74150 26833 ft 406 kts 313°
2026-04-25 17:30 35.15819 -118.76353 26354 ft 401 kts 314°
2026-04-25 17:30 35.17955 -118.78529 25915 ft 397 kts 314°
2026-04-25 17:30 35.20062 -118.80672 25482 ft 392 kts 314°
2026-04-25 17:31 35.22156 -118.82801 25066 ft 388 kts 314°
2026-04-25 17:31 35.24228 -118.84908 24638 ft 384 kts 314°
2026-04-25 17:31 35.26272 -118.86988 24238 ft 381 kts 314°
2026-04-25 17:31 35.28302 -118.89054 23829 ft 378 kts 314°
2026-04-25 17:32 35.30311 -118.91101 23409 ft 375 kts 314°
2026-04-25 17:32 35.32307 -118.93136 22924 ft 372 kts 314°
2026-04-25 17:32 35.34289 -118.95159 22458 ft 369 kts 314°
2026-04-25 17:32 35.36231 -118.97140 22008 ft 367 kts 314°
2026-04-25 17:33 35.38185 -118.99137 21553 ft 364 kts 314°
2026-04-25 17:33 35.40126 -119.01122 21096 ft 362 kts 314°
2026-04-25 17:33 35.42052 -119.03092 20651 ft 360 kts 314°
2026-04-25 17:33 35.43970 -119.05054 20217 ft 358 kts 314°
2026-04-25 17:34 35.45877 -119.07006 19759 ft 356 kts 314°
2026-04-25 17:34 35.47967 -119.08664 19309 ft 367 kts 332°
2026-04-25 17:34 35.50497 -119.09327 18906 ft 379 kts 353°
2026-04-25 17:34 35.53138 -119.09041 18514 ft 382 kts
2026-04-25 17:35 35.55767 -119.08561 18074 ft 381 kts
2026-04-25 17:35 35.58375 -119.08052 17607 ft 379 kts
2026-04-25 17:35 35.60977 -119.07548 17141 ft 377 kts
2026-04-25 17:35 35.63567 -119.07059 16693 ft 375 kts
2026-04-25 17:36 35.66137 -119.06587 16245 ft 373 kts
2026-04-25 17:36 35.68696 -119.06126 15778 ft 371 kts
2026-04-25 17:36 35.71241 -119.05672 15335 ft 368 kts
2026-04-25 17:36 35.73770 -119.05222 14897 ft 366 kts
2026-04-25 17:37 35.76283 -119.04775 14463 ft 363 kts
2026-04-25 17:37 35.78778 -119.04332 14044 ft 361 kts
2026-04-25 17:37 35.81249 -119.03892 13599 ft 358 kts
2026-04-25 17:37 35.83708 -119.03454 13127 ft 356 kts
2026-04-25 17:38 35.86150 -119.03019 12671 ft 353 kts
2026-04-25 17:38 35.86937 -119.02879 12524 ft 352 kts
2026-04-25 17:38 35.90985 -119.02288 11738 ft 345 kts 354°
2026-04-25 17:38 35.93289 -119.02929 11301 ft 337 kts 338°
2026-04-25 17:39 35.95472 -119.03947 10870 ft 334 kts 336°
2026-04-25 17:39 35.97630 -119.04997 10428 ft 332 kts 336°
2026-04-25 17:39 35.99601 -119.05963 10081 ft 328 kts 336°
2026-04-25 17:39 36.01680 -119.06975 10030 ft 314 kts 336°
2026-04-25 17:40 36.03655 -119.07930 10017 ft 299 kts 336°
2026-04-25 17:40 36.05552 -119.08841 10010 ft 285 kts 336°
2026-04-25 17:40 36.07356 -119.09708 10005 ft 271 kts 338°
2026-04-25 17:40 36.09073 -119.10530 10010 ft 258 kts 338°
2026-04-25 17:41 36.10189 -119.11063 10005 ft 250 kts 338°
2026-04-25 17:41 36.11749 -119.11809 10020 ft 235 kts 338°
2026-04-25 17:41 36.13218 -119.12510 10020 ft 218 kts 338°
2026-04-25 17:41 36.14605 -119.13173 10021 ft 212 kts 338°
2026-04-25 17:42 36.15984 -119.13832 10014 ft 212 kts 338°
2026-04-25 17:42 36.17365 -119.14493 10018 ft 213 kts 338°
2026-04-25 17:42 36.18778 -119.15169 9695 ft 223 kts 338°
2026-04-25 17:42 36.20224 -119.15860 9325 ft 222 kts 338°
2026-04-25 17:43 36.21662 -119.16547 8921 ft 221 kts 338°
2026-04-25 17:43 36.23087 -119.17229 8533 ft 219 kts 338°
2026-04-25 17:43 36.24508 -119.17909 8151 ft 218 kts 338°
2026-04-25 17:43 36.25906 -119.18578 7782 ft 217 kts 338°
2026-04-25 17:44 36.27315 -119.19252 7404 ft 217 kts 338°
2026-04-25 17:44 36.28717 -119.19924 7039 ft 216 kts 338°
2026-04-25 17:44 36.30102 -119.20587 6782 ft 210 kts 338°
2026-04-25 17:44 36.31445 -119.21231 6527 ft 205 kts 338°
2026-04-25 17:45 36.32758 -119.21860 6277 ft 200 kts 338°
2026-04-25 17:45 36.33616 -119.22271 6093 ft 198 kts 338°
2026-04-25 17:45 36.35331 -119.23094 5751 ft 197 kts 338°
2026-04-25 17:45 36.36611 -119.23708 5506 ft 199 kts 338°
2026-04-25 17:46 36.37893 -119.24324 5274 ft 201 kts 338°
2026-04-25 17:46 36.39203 -119.24953 5027 ft 201 kts 337°
2026-04-25 17:46 36.40485 -119.25568 4952 ft 192 kts 338°
2026-04-25 17:46 36.41726 -119.26164 4986 ft 192 kts 338°
2026-04-25 17:47 36.42990 -119.26773 5008 ft 198 kts 338°
2026-04-25 17:47 36.44284 -119.27396 4990 ft 200 kts 338°
2026-04-25 17:47 36.45602 -119.28031 4761 ft 205 kts 338°
2026-04-25 17:47 36.46923 -119.28666 4495 ft 202 kts 338°
2026-04-25 17:48 36.49488 -119.29901 3965 ft 194 kts 338°
2026-04-25 17:48 36.50740 -119.30504 3728 ft 193 kts 338°
2026-04-25 17:48 36.52008 -119.31115 3642 ft 196 kts 338°
2026-04-25 17:49 36.53268 -119.31723 3605 ft 198 kts 338°
2026-04-25 17:49 36.54544 -119.32338 3596 ft 193 kts 338°
2026-04-25 17:49 36.55623 -119.33258 3602 ft 190 kts 306°
2026-04-25 17:49 36.56394 -119.34619 3574 ft 197 kts 305°
2026-04-25 17:50 36.57186 -119.36005 3556 ft 195 kts 304°
2026-04-25 17:50 36.57962 -119.37357 3554 ft 190 kts 304°
2026-04-25 17:50 36.58719 -119.38673 3562 ft 187 kts 304°
2026-04-25 17:50 36.59496 -119.39996 3581 ft 191 kts 305°
2026-04-25 17:51 36.60281 -119.41334 3586 ft 191 kts 305°
2026-04-25 17:51 36.61059 -119.42672 3588 ft 191 kts 305°
2026-04-25 17:51 36.61833 -119.44011 3572 ft 187 kts 304°
2026-04-25 17:51 36.62574 -119.45300 3587 ft 181 kts 304°
2026-04-25 17:52 36.63315 -119.46593 3596 ft 185 kts 304°
2026-04-25 17:52 36.63809 -119.47454 3587 ft 185 kts 304°
2026-04-25 17:52 36.64809 -119.49187 3596 ft 185 kts 306°
2026-04-25 17:52 36.65511 -119.50353 3601 ft 186 kts 306°
2026-04-25 17:53 36.66284 -119.51679 3599 ft 185 kts 305°
2026-04-25 17:53 36.67029 -119.52980 3590 ft 182 kts 304°
2026-04-25 17:53 36.67732 -119.54219 3474 ft 168 kts 304°
2026-04-25 17:53 36.68387 -119.55373 3256 ft 158 kts 304°
2026-04-25 17:54 36.69001 -119.56459 3071 ft 152 kts 305°
2026-04-25 17:54 36.69605 -119.57525 2877 ft 151 kts 305°
2026-04-25 17:54 36.70212 -119.58596 2662 ft 148 kts 306°
2026-04-25 17:54 36.70808 -119.59647 2477 ft 149 kts 306°
2026-04-25 17:55 36.71394 -119.60680 2272 ft 148 kts 306°
2026-04-25 17:55 36.71989 -119.61729 2071 ft 147 kts 306°
2026-04-25 17:55 36.72579 -119.62769 1897 ft 146 kts 306°
2026-04-25 17:55 36.73168 -119.63807 1679 ft 148 kts 306°
2026-04-25 17:56 36.73757 -119.64844 1477 ft 147 kts 306°
2026-04-25 17:56 36.74346 -119.65882 1285 ft 146 kts 306°
2026-04-25 17:56 36.74948 -119.66898 1174 ft 145 kts 306°
2026-04-25 17:56 36.75529 -119.67954 942 ft 149 kts 304°
2026-04-25 17:57 36.76101 -119.69012 682 ft 147 kts 305°
2026-04-25 17:57 36.76697 -119.70026 455 ft 138 kts 305°
2026-04-25 17:57 36.77220 -119.70936 333 ft 122 kts 305°
2026-04-25 17:57 36.77506 -119.71442 338 ft 86 kts 305°
2026-04-25 17:58 36.77647 -119.71815 333 ft 25 kts 275°
2026-04-25 17:58 36.77656 -119.72009 329 ft 20 kts 262°
2026-04-25 17:58 36.77587 -119.72087 332 ft 14 kts 179°
2026-04-25 17:58 36.77499 -119.72044 332 ft 13 kts 158°
2026-04-25 17:59 36.77416 -119.71996 337 ft 13 kts 154°
2026-04-25 17:59 36.77346 -119.71931 336 ft 13 kts 123°
2026-04-25 17:59 36.77297 -119.71837 338 ft 13 kts 124°
2026-04-25 17:59 36.77235 -119.71821 336 ft 8 kts 212°
2026-04-25 18:00 36.77217 -119.71838 338 ft 0 kts 217°